Change the Weather History Date:

Sunday, July 28, 2013

  Actual Average Record
Temperature  
Mean Temperature 81 °F -  
Max Temperature 89 °F 87 °F 98 °F (1999)
Min Temperature 73 °F 70 °F 55 °F (1977)
Cooling Degree Days 16    
Growing Degree Days 31 (Base 50)    
Moisture  
Dew Point 72 °F    
Average Humidity 82    
Maximum Humidity 96    
Minimum Humidity 52    
Precipitation  
Precipitation 0.00 in - - ()
Sea Level Pressure  
Sea Level Pressure 29.97 in    
Wind  
Wind Speed 5 mph (SSW)    
Max Wind Speed 10 mph    
Max Gust Speed -    
Visibility 9 miles    
Events      
Averages and records for this station are not official NWS values.
T = Trace of Precipitation, MM = Missing Value Source: NWS Daily Summary

Daily Weather History Graph

Daily Weather History Graph

Search for Another Location

Airport or City:

Trip Planner

Search our weather history database for the weather conditions in past years. The results will help you decide how hot, cold, wet, or windy it might be!

Date:

Astronomy

Jul. 28, 2013 Rise Set
Actual Time 6:16 AM EDT 8:17 PM EDT
Civil Twilight 5:48 AM EDT 8:45 PM EDT
Nautical Twilight 5:13 AM EDT 9:19 PM EDT
Astronomical Twilight 4:36 AM EDT 9:56 PM EDT
Moon 11:55 PM EDT (7/28) 12:39 PM EDT (7/28)
Length of Visible Light 14h 57m
Length of Day
14h 00m
Waning Gibbous, 61% of the Moon is Illuminated
Jul 28
Waning Gibbous
Jul 29
Last Quarter
Aug 6
New
Aug 14
First Quarter
Aug 20
Full

Hourly Weather History & Observations

Time (EDT) Temp. Heat Index Dew Point Humidity Pressure Visibility Wind Dir Wind Speed Gust Speed Precip Events Conditions
12:15 AM 76.1 °F - 70.5 °F 83% 29.98 in 10.0 mi SSE 5.8 mph - N/A   Clear
12:35 AM 76.1 °F - 70.7 °F 83% 29.99 in 10.0 mi SSW 4.6 mph - N/A   Clear
12:55 AM 75.4 °F - 70.7 °F 85% 29.98 in 10.0 mi South 3.5 mph - N/A   Clear
1:15 AM 74.8 °F - 70.9 °F 87% 29.98 in 10.0 mi SSE 4.6 mph - N/A   Clear
1:35 AM 74.1 °F - 70.9 °F 90% 29.97 in 10.0 mi SSW 3.5 mph - N/A   Clear
1:55 AM 73.8 °F - 70.9 °F 91% 29.96 in 10.0 mi Calm Calm - N/A   Clear
2:15 AM 73.9 °F - 70.9 °F 90% 29.95 in 10.0 mi Calm Calm - N/A   Clear
2:35 AM 74.1 °F - 71.2 °F 91% 29.93 in 10.0 mi SE 4.6 mph - N/A   Clear
2:55 AM 74.5 °F - 71.6 °F 91% 29.93 in 10.0 mi South 3.5 mph - N/A   Clear
3:15 AM 74.8 °F - 72.3 °F 92% 29.92 in 10.0 mi SE 5.8 mph - N/A   Clear
3:35 AM 75.2 °F - 72.5 °F 91% 29.92 in 10.0 mi SSE 8.1 mph - N/A   Clear
3:55 AM 75.2 °F - 73.0 °F 93% 29.93 in 10.0 mi South 5.8 mph - N/A   Clear
4:15 AM 74.7 °F - 72.9 °F 94% 29.93 in 7.0 mi SW 4.6 mph - N/A   Scattered Clouds
4:35 AM 74.5 °F - 73.0 °F 95% 29.94 in 7.0 mi WSW 3.5 mph - N/A   Mostly Cloudy
4:55 AM 74.3 °F - 73.0 °F 96% 29.94 in 7.0 mi Calm Calm - N/A   Overcast
5:15 AM 74.3 °F - 73.0 °F 96% 29.94 in 7.0 mi Calm Calm - N/A   Overcast
5:35 AM 74.3 °F - 72.9 °F 95% 29.94 in 7.0 mi Calm Calm - N/A   Scattered Clouds
5:55 AM 73.8 °F - 72.5 °F 96% 29.95 in 5.0 mi Calm Calm - N/A   Mostly Cloudy
6:15 AM 73.8 °F - 72.5 °F 96% 29.95 in 5.0 mi Calm Calm - N/A   Mostly Cloudy
6:56 AM - - - N/A% 29.95 in 5.0 mi North 4.6 mph - N/A   Mostly Cloudy
7:56 AM 75.2 °F - 73.4 °F 94% 29.96 in 4.0 mi NNW 3.5 mph - N/A   Scattered Clouds
8:56 AM 78.8 °F - 73.4 °F 83% 29.98 in 7.0 mi Calm Calm - N/A   Mostly Cloudy
9:56 AM 80.6 °F 84.6 °F 71.6 °F 74% 29.98 in 7.0 mi West 3.5 mph - N/A   Mostly Cloudy
10:56 AM 82.4 °F 87.2 °F 71.6 °F 70% 29.99 in 7.0 mi WSW 4.6 mph - N/A   Mostly Cloudy
11:56 AM 82.4 °F 87.2 °F 71.6 °F 70% 29.99 in 10.0 mi SW 4.6 mph - N/A   Mostly Cloudy
12:56 PM 84.2 °F 89.6 °F 71.6 °F 66% 29.99 in 10.0 mi SW 6.9 mph - N/A   Mostly Cloudy
1:56 PM 87.8 °F 93.8 °F 71.6 °F 58% 29.97 in 10.0 mi WSW 6.9 mph - N/A   Clear
2:56 PM 87.8 °F 92.6 °F 69.8 °F 55% 29.96 in 10.0 mi SW 6.9 mph - N/A   Scattered Clouds
3:56 PM 87.8 °F 91.4 °F 68.0 °F 52% 29.96 in 10.0 mi SW 8.1 mph - N/A   Scattered Clouds
4:56 PM 89.6 °F 94.7 °F 69.8 °F 52% 29.96 in 10.0 mi SSW 8.1 mph - N/A   Clear
5:56 PM 87.8 °F 91.4 °F 68.0 °F 52% 29.96 in 10.0 mi SSW 10.4 mph - N/A   Clear
6:56 PM 86.0 °F 90.4 °F 69.8 °F 58% 29.96 in 10.0 mi South 8.1 mph - N/A   Clear
7:56 PM 82.4 °F 88.2 °F 73.4 °F 74% 29.99 in 10.0 mi South 8.1 mph - N/A   Clear
8:56 PM 80.6 °F 85.4 °F 73.4 °F 79% 30.00 in 10.0 mi South 6.9 mph - N/A   Clear
9:15 PM 79.9 °F - 73.8 °F 81% 30.01 in 10.0 mi South 8.1 mph - N/A   Clear
9:35 PM 79.5 °F - 74.3 °F 84% 30.01 in 10.0 mi South 6.9 mph - N/A   Clear
9:55 PM 79.0 °F - 74.3 °F 85% 30.02 in 10.0 mi South 6.9 mph - N/A   Clear
10:15 PM 78.4 °F - 74.5 °F 88% 30.02 in 10.0 mi SSW 4.6 mph - N/A   Clear
10:35 PM 77.9 °F - 74.7 °F 90% 30.03 in 10.0 mi South 4.6 mph - N/A   Clear
10:55 PM 77.9 °F - 74.8 °F 90% 30.02 in 10.0 mi South 6.9 mph - N/A   Clear
11:15 PM 77.9 °F - 74.8 °F 90% 30.01 in 10.0 mi South 6.9 mph - N/A   Clear
11:35 PM 77.5 °F - 74.7 °F 91% 30.01 in 10.0 mi South 6.9 mph - N/A   Clear
11:55 PM 77.4 °F - 74.7 °F 91% 30.02 in 10.0 mi South 6.9 mph - N/A   Clear